Weather in Mimishkino

Russia / Ryazan Oblast     55°04′03″N   41°17′38″E
temp.,
°C
wind,
m/s
gust,
m/s
humid.,
%
clouds,
%
prec.,
mm/h
press.,
hPa
HPBL,
m
4 march, thu
thu400:00−1w51192100 0.3 1008772
03:00−1wsw5129299 0.3 1005695
06:000wsw61392100 0.1 1001743
09:00+1w71396100 1.1 10001024
12:000w71298100 0.4 999914
15:000w51198100 0.7 999686
18:00−2w2491100 0.6 999142
21:00−2w2288100 0.6 100033
5 march, fri
fri500:00−4n2297100 0.3 100088
03:00−7nnw2395100 0.6 100262
06:00−9nw2394100 0.0 100448
09:00−7wnw249473 0.0 1006194
12:00−3w358576 0.0 1007670
15:00−2w467988 0.3 10091079
18:00−6w398853 0.3 1010211
21:00−9wnw269252 0.4 1013109
6 march, sat
sat600:00−10nw22930 0.0 101523
03:00−13n12950 0.0 101620
06:00−14ne11890 0.0 101620
09:00−10se11820 0.0 1017112
12:00−6se118054 0.0 1016398
15:00−5se128977 0.2 1015343
18:00−7ese2297100 0.3 101530
21:00−8nne2596100 1.5 1016267
7 march, sun
sun700:00−12nw129467 0.1 101521
03:00−14sw239633 0.1 101374
06:00−13ssw4129121 0.0 1011283
09:00−9ssw7148560 0.0 1007577
12:00−5sw81583100 0.1 10021054
15:00−4sw81592100 1.6 9981247
18:00−3wsw81395100 2.3 9961172
21:00−9w4117586 2.6 999320
8 march, mon
mon800:00−11sw410820 0.0 1000243
03:00−11sw413820 0.0 999379
06:00−11ssw411910 0.0 997327
09:00−8sw5119342 0.3 995675
12:00−6w6975100 0.9 9961346
15:00−6wnw597799 1.1 9991264
18:00−9wnw61386100 0.1 1003960
21:00−11wnw4128993 0.1 1007495